Torna al catalogo

STARLINK-1154

AttivoComunicazioniVLEO
NORAD 45198·PAYLOAD·🇺🇸 United States

Lanciato Feb 17, 2020 da Cape Canaveral Space Force Station

Loading…

Prossimi Passaggi (prossime 24 ore)

TLE

AggiornatoSource: CelesTrak SupGP

Epoca: Sep 14, 2026, 20:44 UTC

1 45198C 20012W   26257.86437500  .00028581  00000+0  21329-3 0  2577
2 45198  53.0369 166.6471 0001390  60.2871  14.3199 15.72045988    10

Traccia STARLINK-1154 in tempo reale con AllMySat

Download on the App Store